CW8668 Weather Reports


time (UTC)temp
F
wind
direction
speed
knots
gust
knots
rain 1hr
in
rain 24hr
in
rain mn
in
humidity
%
barometer
mb
20260510063036 49 0.0 1.7 0.00 0.43 0.00 95 1008.6
20260510061536 49 0.0 1.7 0.00 0.43 0.00 90 1008.6
20260510060016 49 0.0 2.6 0.00 0.43 0.00 95 1008.8
20260510054516 48 0.0 0.9 0.00 0.43 0.00 95 1008.8
20260510053016 48 315 0.9 2.6 0.00 0.43 0.00 95 1008.7
20260510051516 49 0.0 1.7 0.00 0.43 0.00 95 1008.8
20260510050016 49 0 0.9 1.7 0.00 0.43 0.00 95 1008.5
20260510044516 49 315 0.9 2.6 0.00 0.43 0.00 95 1008.4
20260510043016 49 45 0.9 4.3 0.00 0.43 0.00 95 1008.4
20260510041516 49 0.0 2.6 0.00 0.43 0.00 95 1008.5
20260510040016 49 23 0.9 4.3 0.00 0.43 0.00 95 1008.3
20260510034536 49 0.0 1.7 0.00 0.43 0.00 95 1008.1
20260510033016 50 0.0 1.7 0.00 0.43 0.00 95 1008.4
20260510031516 50 0.0 0.9 0.00 0.43 0.00 95 1008.4
20260510030016 50 0.0 0.9 0.00 0.43 0.00 95 1008.5
20260510024516 50 0.0 0.9 0.00 0.43 0.00 95 1008.7
20260510023016 50 0.0 1.7 0.00 0.43 0.00 95 1008.9
20260510021516 49 0.0 0.9 0.00 0.43 0.00 95 1008.6
20260510020015 49 0.0 1.7 0.00 0.43 0.00 95 1008.5
20260510014516 49 0.0 0.9 0.00 0.43 0.00 95 1008.4
20260510013016 49 113 0.9 2.6 0.00 0.43 0.00 94 1008.3
20260510011516 51 0.0 2.6 0.00 0.43 0.00 95 1008.2
20260510010015 51 0.0 0.9 0.00 0.43 0.00 95 1008.5
20260510004515 51 0.0 0.9 0.00 0.43 0.00 95 1008.5
20260510003015 51 0.0 0.9 0.00 0.43 0.00 94 1008.6
20260510001536 51 0.0 0.9 0.00 0.43 0.00 95 1009.0
20260510000015 51 0.0 0.9 0.00 0.43 0.43 94 1009.0
20260509234516 50 0.0 0.9 0.00 0.43 0.43 94 1009.1
20260509233015 50 0.0 0.9 0.00 0.43 0.43 94 1009.1
20260509231516 50 0.0 0.9 0.00 0.43 0.43 94 1009.3
20260509230015 50 0.0 0.9 0.00 0.43 0.43 94 1009.5
20260509224517 50 0.0 0.9 0.00 0.43 0.43 94 1009.6
20260509223037 50 0.0 0.9 0.00 0.43 0.43 93 1009.6
20260509221517 50 0.0 0.9 0.00 0.43 0.43 93 1009.5
20260509220017 50 0.0 0.9 0.01 0.43 0.43 93 1009.6
20260509214517 50 0.0 0.9 0.01 0.43 0.43 93 1009.4
20260509213018 50 0.0 0.9 0.01 0.43 0.43 93 1009.5
20260509211517 50 0.0 0.9 0.01 0.43 0.43 93 1009.4
20260509210017 50 0.0 1.7 0.00 0.42 0.42 92 1009.5
20260509204517 50 0.0 0.9 0.00 0.42 0.42 92 1009.4
20260509203037 50 0.0 0.9 0.01 0.42 0.42 92 1009.4
20260509201557 50 0.0 0.9 0.03 0.42 0.42 92 1009.2
20260509200017 51 0.0 1.7 0.04 0.42 0.42 92 1009.2
20260509194517 51 0.0 2.6 0.05 0.42 0.42 92 1008.9
20260509193017 51 225 0.9 2.6 0.05 0.41 0.41 91 1008.6
20260509191517 51 203 0.9 2.6 0.06 0.39 0.39 91 1008.5
20260509190017 52 203 0.9 2.6 0.08 0.38 0.38 90 1008.6
20260509184517 52 0.0 1.7 0.10 0.37 0.37 90 1008.3
20260509183017 52 45 0.9 2.6 0.12 0.36 0.36 89 1008.3
20260509181517 52 45 0.9 2.6 0.14 0.33 0.33 89 1008.7
20260509180017 52 23 0.9 2.6 0.16 0.30 0.30 88 1009.1
20260509174516 52 23 1.7 4.3 0.21 0.27 0.27 87 1009.3
20260509173016 53 23 2.6 5.2 0.21 0.24 0.24 85 1009.4
20260509171517 52 45 3.5 8.7 0.19 0.19 0.19 83 1009.8
20260509170016 53 45 3.5 9.6 0.14 0.14 0.14 82 1009.6
20260509164517 55 23 2.6 5.2 0.06 0.06 0.06 79 1009.5
20260509163016 56 23 3.5 7.0 0.03 0.03 0.03 75 1009.7
20260509161516 56 45 4.3 7.0 0.00 0.00 0.00 71 1009.6
20260509160017 56 23 4.3 7.0 0.00 0.00 0.00 70 1009.0
20260509154536 57 45 4.3 8.7 0.00 0.00 0.00 70 1008.4
20260509153016 56 45 6.1 11.3 0.00 0.00 0.00 69 1008.1
20260509151516 57 45 5.2 8.7 0.00 0.00 0.00 68 1008.1
20260509150016 57 45 5.2 10.4 0.00 0.00 0.00 67 1008.4
20260509144517 58 45 2.6 7.0 0.00 0.00 0.00 66 1008.9
20260509143016 58 68 1.7 5.2 0.00 0.00 0.00 65 1009.2
20260509141516 58 45 1.7 5.2 0.00 0.00 0.00 62 1009.5
20260509140016 58 113 2.6 7.0 0.00 0.00 0.00 62 1009.5
20260509134516 58 158 2.6 10.4 0.00 0.00 0.00 62 1009.8
20260509133016 58 45 4.3 10.4 0.00 0.00 0.00 64 1009.7
20260509131516 58 45 6.1 12.2 0.00 0.00 0.00 65 1009.5
20260509130017 59 45 6.1 11.3 0.00 0.00 0.00 64 1009.3
20260509124516 59 45 6.1 9.6 0.00 0.00 0.00 63 1009.5
20260509123037 60 45 3.5 8.7 0.00 0.00 0.00 61 1009.7
20260509121516 60 90 4.3 10.4 0.00 0.00 0.00 59 1009.9
20260509120016 60 45 3.5 9.6 0.00 0.00 0.00 57 1010.1
20260509114516 60 45 4.3 9.6 0.00 0.00 0.00 56 1010.1
20260509113016 60 45 6.1 10.4 0.00 0.00 0.00 55 1010.2
20260509111516 60 45 4.3 9.6 0.00 0.00 0.00 56 1010.1
20260509110036 60 68 4.3 9.6 0.00 0.00 0.00 56 1010.6
20260509104516 60 68 1.7 8.7 0.00 0.00 0.00 55 1010.8
20260509103016 61 113 2.6 6.1 0.00 0.00 0.00 54 1010.7
20260509101515 61 45 1.7 6.1 0.00 0.00 0.00 52 1010.8
20260509100015 60 45 1.7 7.0 0.00 0.00 0.00 54 1010.7
20260509094516 60 68 1.7 6.1 0.00 0.00 0.00 55 1010.2
20260509093016 59 45 1.7 5.2 0.00 0.00 0.00 56 1010.0
20260509091516 59 23 2.6 6.1 0.00 0.00 0.00 58 1010.3
20260509090016 59 68 0.9 4.3 0.00 0.00 0.00 59 1010.4
20260509084515 57 0.0 2.6 0.00 0.00 0.00 67 1010.1
20260509083016 55 0.0 1.7 0.00 0.00 0.00 70 1010.4
20260509081536 54 0.0 4.3 0.00 0.00 0.00 72 1010.3
20260509080016 53 0.0 2.6 0.00 0.00 0.00 75 1010.5
20260509074515 52 45 0.9 2.6 0.00 0.00 0.00 77 1010.4
20260509073015 52 0.0 4.3 0.00 0.00 0.00 78 1010.6
20260509071515 51 0.0 2.6 0.00 0.00 0.00 80 1010.7
20260509070015 50 0.0 2.6 0.00 0.00 0.00 82 1010.7
20260509064515 50 0.0 0.9 0.00 0.00 0.00 83 1010.9